timestamp,wind_dir_avg,wind_spd_avg,wind_spd_max_dir,wind_spd_gust,battery_voltage,lat,long
2023-09-27 00:04:00+00:00,26.0,9.65,31.0,10.54,12.49,47.59359,-54.27349
2023-09-27 00:14:01+00:00,31.0,8.36,28.0,10.09,12.41,47.59359,-54.27349
2023-09-27 00:24:01+00:00,32.0,6.47,33.0,7.73,12.41,47.59359,-54.27349
2023-09-27 00:34:01+00:00,36.0,6.92,46.0,8.55,12.41,47.59359,-54.27349
2023-09-27 00:44:01+00:00,21.0,5.69,16.0,6.5,12.41,47.59359,-54.27349
2023-09-27 00:54:01+00:00,16.0,5.6,18.0,6.22,12.41,47.59359,-54.27349
2023-09-27 01:04:01+00:00,11.0,6.02,19.0,6.84,12.41,47.59359,-54.27349
2023-09-27 01:14:01+00:00,19.0,6.39,15.0,7.42,12.41,47.59359,-54.27349
2023-09-27 01:24:01+00:00,29.0,7.13,29.0,8.76,12.41,47.59359,-54.27349
2023-09-27 01:34:01+00:00,24.0,6.7,24.0,7.92,12.41,47.59359,-54.27349
2023-09-27 01:44:01+00:00,18.0,6.74,22.0,8.19,12.41,47.59359,-54.27349
2023-09-27 01:54:01+00:00,14.0,7.36,14.0,8.47,12.41,47.59359,-54.27349
2023-09-27 02:04:01+00:00,24.0,8.88,18.0,10.19,12.41,47.59359,-54.27349
2023-09-27 02:14:01+00:00,23.0,8.51,29.0,10.1,12.41,47.59359,-54.27349
2023-09-27 02:24:01+00:00,29.0,8.74,26.0,10.1,12.41,47.59359,-54.27349
2023-09-27 02:34:01+00:00,41.0,7.01,36.0,8.94,12.41,47.59359,-54.27349
2023-09-27 02:44:01+00:00,31.0,7.35,32.0,8.79,12.41,47.59359,-54.27349
2023-09-27 02:54:01+00:00,23.0,8.83,27.0,9.83,12.41,47.59359,-54.27349
2023-09-27 03:04:01+00:00,41.0,7.54,42.0,9.78,12.41,47.59359,-54.27349
2023-09-27 03:14:01+00:00,22.0,7.6,26.0,8.73,12.41,47.59359,-54.27349
2023-09-27 03:24:01+00:00,46.0,6.52,45.0,7.62,12.41,47.59359,-54.27349
2023-09-27 03:34:01+00:00,46.0,5.56,51.0,6.29,12.41,47.59359,-54.27349
2023-09-27 03:44:01+00:00,14.0,5.62,15.0,6.3,12.41,47.59359,-54.27349
2023-09-27 03:54:01+00:00,18.0,5.92,19.0,6.97,12.41,47.59359,-54.27349
2023-09-27 04:04:01+00:00,14.0,6.31,18.0,9.12,12.41,47.59359,-54.27349
2023-09-27 04:14:00+00:00,16.0,5.76,19.0,6.57,12.33,47.59359,-54.27349
2023-09-27 04:24:00+00:00,19.0,5.54,16.0,6.15,12.33,47.59359,-54.27349
2023-09-27 04:34:00+00:00,23.0,5.78,29.0,6.65,12.33,47.59359,-54.27349
2023-09-27 04:44:00+00:00,11.0,5.8,8.0,6.92,12.33,47.59359,-54.27349
2023-09-27 04:54:00+00:00,359.0,6.81,7.0,7.76,12.33,47.59359,-54.27349
2023-09-27 05:04:00+00:00,5.0,6.43,5.0,7.44,12.33,47.59359,-54.27349
2023-09-27 05:14:01+00:00,18.0,5.87,24.0,7.43,12.33,47.59359,-54.27349
2023-09-27 05:24:01+00:00,23.0,5.82,21.0,6.33,12.33,47.59359,-54.27349
2023-09-27 05:34:01+00:00,19.0,5.15,18.0,6.26,12.33,47.59359,-54.27349
2023-09-27 05:44:01+00:00,14.0,5.45,17.0,6.32,12.33,47.59359,-54.27349
2023-09-27 05:54:01+00:00,30.0,6.3,24.0,7.68,12.33,47.59359,-54.27349
2023-09-27 06:04:01+00:00,5.0,6.03,20.0,7.2,12.33,47.59359,-54.27349
2023-09-27 06:14:00+00:00,13.0,6.13,17.0,7.75,12.33,47.59359,-54.27349
2023-09-27 06:24:00+00:00,0.0,6.83,6.0,8.03,12.33,47.59359,-54.27349
2023-09-27 06:34:00+00:00,33.0,4.63,33.0,6.12,12.33,47.59359,-54.27349
2023-09-27 06:44:00+00:00,8.0,6.76,21.0,7.59,12.33,47.59359,-54.27349
2023-09-27 06:54:00+00:00,20.0,5.89,18.0,7.25,12.33,47.59359,-54.27349
2023-09-27 07:04:00+00:00,21.0,5.96,7.0,7.38,12.33,47.59359,-54.27349
2023-09-27 07:14:00+00:00,18.0,6.5,23.0,8.22,12.25,47.59359,-54.27349
2023-09-27 07:24:00+00:00,39.0,6.88,40.0,8.04,12.25,47.59359,-54.27349
2023-09-27 07:34:00+00:00,16.0,6.82,20.0,7.95,12.25,47.59359,-54.27349
2023-09-27 07:44:00+00:00,12.0,5.36,10.0,6.34,12.25,47.59359,-54.27349
2023-09-27 07:54:00+00:00,11.0,5.74,15.0,6.86,12.25,47.59359,-54.27349
2023-09-27 08:04:00+00:00,351.0,5.41,354.0,6.3,12.25,47.59359,-54.27349
2023-09-27 08:14:00+00:00,349.0,5.9,350.0,7.02,12.25,47.59359,-54.27349
2023-09-27 08:24:00+00:00,359.0,5.81,0.0,6.59,12.25,47.59359,-54.27349
2023-09-27 08:34:00+00:00,352.0,4.83,348.0,5.78,12.25,47.59359,-54.27349
2023-09-27 08:44:00+00:00,354.0,5.45,351.0,6.65,12.25,47.59359,-54.27349
2023-09-27 08:54:00+00:00,356.0,5.47,356.0,6.32,12.25,47.59359,-54.27349
2023-09-27 09:04:00+00:00,1.0,4.97,3.0,5.94,12.25,47.59359,-54.27349
2023-09-27 09:14:01+00:00,356.0,5.17,355.0,6.0,12.17,47.59359,-54.27349
2023-09-27 09:24:01+00:00,9.0,5.28,22.0,6.19,12.17,47.59359,-54.27349
2023-09-27 09:34:01+00:00,10.0,5.17,5.0,6.17,12.17,47.59359,-54.27349
2023-09-27 09:44:01+00:00,11.0,4.44,4.0,5.3,12.17,47.59359,-54.27349
2023-09-27 09:54:01+00:00,11.0,4.85,15.0,5.5,12.17,47.59359,-54.27349
2023-09-27 10:04:01+00:00,10.0,5.11,8.0,6.27,12.17,47.59359,-54.27349
2023-09-27 10:14:00+00:00,4.0,4.96,2.0,5.65,12.25,47.59359,-54.27349
2023-09-27 10:24:00+00:00,5.0,4.86,6.0,5.82,12.25,47.59359,-54.27349
2023-09-27 10:34:00+00:00,7.0,4.46,10.0,5.18,12.25,47.59359,-54.27349
2023-09-27 10:44:00+00:00,4.0,5.1,3.0,6.18,12.25,47.59359,-54.27349
2023-09-27 10:54:00+00:00,1.0,4.15,356.0,4.69,12.25,47.59359,-54.27349
2023-09-27 11:04:00+00:00,6.0,3.82,11.0,4.93,12.25,47.59359,-54.27349
2023-09-27 11:14:00+00:00,7.0,3.9,16.0,4.97,13.84,47.59359,-54.27349
2023-09-27 11:24:00+00:00,6.0,4.59,4.0,5.18,13.84,47.59359,-54.27349
2023-09-27 11:34:00+00:00,6.0,3.82,359.0,4.56,13.84,47.59359,-54.27349
2023-09-27 11:44:00+00:00,10.0,3.27,15.0,3.97,13.84,47.59359,-54.27349
2023-09-27 11:54:00+00:00,22.0,4.18,28.0,5.29,13.84,47.59359,-54.27349
2023-09-27 12:04:00+00:00,2.0,4.28,358.0,5.05,13.84,47.59359,-54.27349
2023-09-27 12:14:00+00:00,21.0,3.45,16.0,4.31,13.84,47.59359,-54.27349
2023-09-27 12:24:00+00:00,45.0,5.49,48.0,6.3,13.84,47.59359,-54.27349
2023-09-27 12:34:00+00:00,37.0,5.58,38.0,6.33,13.84,47.59359,-54.27349
2023-09-27 12:44:00+00:00,28.0,4.83,36.0,5.59,13.84,47.59359,-54.27349
2023-09-27 12:54:00+00:00,50.0,4.48,51.0,5.17,13.84,47.59359,-54.27349
2023-09-27 13:04:00+00:00,45.0,3.88,34.0,5.04,13.84,47.59359,-54.27349
2023-09-27 13:14:00+00:00,48.0,4.21,39.0,4.91,14.16,47.59359,-54.27349
2023-09-27 13:24:00+00:00,52.0,3.06,48.0,3.62,14.16,47.59359,-54.27349
2023-09-27 13:34:00+00:00,42.0,2.57,34.0,3.13,14.16,47.59359,-54.27349
2023-09-27 13:44:00+00:00,61.0,2.18,82.0,2.65,14.16,47.59359,-54.27349
2023-09-27 13:54:00+00:00,39.0,3.04,39.0,3.92,14.16,47.59359,-54.27349
2023-09-27 14:04:00+00:00,36.0,2.45,41.0,2.97,14.16,47.59359,-54.27349
2023-09-27 14:14:00+00:00,40.0,1.76,34.0,2.28,14.32,47.59359,-54.27349
2023-09-27 14:24:00+00:00,34.0,1.2,34.0,1.6,14.32,47.59359,-54.27349
2023-09-27 14:34:00+00:00,12.0,0.5,4.0,1.01,14.32,47.59359,-54.27349
2023-09-27 14:44:00+00:00,149.0,1.43,144.0,1.82,14.32,47.59359,-54.27349
2023-09-27 14:54:00+00:00,162.0,1.11,166.0,1.4,14.32,47.59359,-54.27349
2023-09-27 15:04:00+00:00,170.0,1.94,176.0,2.57,14.32,47.59359,-54.27349
2023-09-27 15:14:00+00:00,171.0,2.39,172.0,2.88,14.32,47.59359,-54.27349
2023-09-27 15:24:00+00:00,180.0,2.22,176.0,2.52,14.32,47.59359,-54.27349
2023-09-27 15:34:00+00:00,196.0,2.8,193.0,3.61,14.32,47.59359,-54.27349
2023-09-27 15:44:00+00:00,180.0,2.84,190.0,3.47,14.32,47.59359,-54.27349
2023-09-27 15:54:00+00:00,195.0,3.46,206.0,3.97,14.32,47.59359,-54.27349
2023-09-27 16:04:00+00:00,198.0,3.26,204.0,3.95,14.32,47.59359,-54.27349
2023-09-27 16:14:00+00:00,193.0,3.26,199.0,4.19,14.0,47.59359,-54.27349
2023-09-27 16:24:00+00:00,192.0,3.98,195.0,4.44,14.0,47.59359,-54.27349
2023-09-27 16:34:00+00:00,184.0,4.25,182.0,4.74,14.0,47.59359,-54.27349
2023-09-27 16:44:00+00:00,196.0,3.61,194.0,4.19,14.0,47.59359,-54.27349
2023-09-27 16:54:00+00:00,190.0,3.83,192.0,4.43,14.0,47.59359,-54.27349
2023-09-27 17:04:00+00:00,195.0,4.16,207.0,4.67,14.0,47.59359,-54.27349
2023-09-27 17:14:01+00:00,200.0,6.08,206.0,7.17,14.32,47.59359,-54.27349
2023-09-27 17:24:01+00:00,209.0,6.63,211.0,7.29,14.32,47.59359,-54.27349
2023-09-27 17:34:01+00:00,210.0,6.55,214.0,7.09,14.32,47.59359,-54.27349
2023-09-27 17:44:01+00:00,212.0,7.38,207.0,8.28,14.32,47.59359,-54.27349
2023-09-27 17:54:01+00:00,203.0,8.11,202.0,8.73,14.32,47.59359,-54.27349
2023-09-27 18:04:01+00:00,208.0,8.01,202.0,9.6,14.32,47.59359,-54.27349
2023-09-27 18:14:00+00:00,213.0,7.78,212.0,9.41,13.76,47.59359,-54.27349
2023-09-27 18:24:00+00:00,210.0,8.4,208.0,9.89,13.76,47.59359,-54.27349
2023-09-27 18:34:00+00:00,214.0,7.83,214.0,9.09,13.76,47.59359,-54.27349
2023-09-27 18:44:00+00:00,216.0,7.74,212.0,8.79,13.76,47.59359,-54.27349
2023-09-27 18:54:00+00:00,235.0,6.82,232.0,7.71,13.76,47.59359,-54.27349
2023-09-27 19:04:00+00:00,248.0,7.12,250.0,8.21,13.76,47.59359,-54.27349
2023-09-27 19:14:00+00:00,266.0,6.85,260.0,7.96,13.68,47.59359,-54.27349
2023-09-27 19:24:00+00:00,280.0,7.16,277.0,8.38,13.68,47.59359,-54.27349
2023-09-27 19:34:00+00:00,268.0,5.45,266.0,6.41,13.68,47.59359,-54.27349
2023-09-27 19:44:00+00:00,268.0,5.55,272.0,6.11,13.68,47.59359,-54.27349
2023-09-27 19:54:00+00:00,240.0,8.11,243.0,9.09,13.68,47.59359,-54.27349
2023-09-27 20:04:00+00:00,241.0,8.08,246.0,8.96,13.68,47.59359,-54.27349
2023-09-27 20:14:01+00:00,234.0,7.0,234.0,8.06,13.44,47.59359,-54.27349
2023-09-27 20:24:01+00:00,241.0,8.73,241.0,9.6,13.44,47.59359,-54.27349
2023-09-27 20:34:01+00:00,242.0,6.44,245.0,7.69,13.44,47.59359,-54.27349
2023-09-27 20:44:01+00:00,243.0,7.61,247.0,8.66,13.44,47.59359,-54.27349
2023-09-27 20:54:01+00:00,252.0,7.2,250.0,8.55,13.44,47.59359,-54.27349
2023-09-27 21:04:01+00:00,255.0,7.76,256.0,9.97,13.44,47.59359,-54.27349
2023-09-27 21:14:00+00:00,246.0,7.21,246.0,8.11,12.97,47.59359,-54.27349
2023-09-27 21:24:00+00:00,237.0,7.36,234.0,8.22,12.97,47.59359,-54.27349
2023-09-27 21:34:00+00:00,246.0,8.06,247.0,9.48,12.97,47.59359,-54.27349
2023-09-27 21:44:00+00:00,237.0,8.13,241.0,9.16,12.97,47.59359,-54.27349
2023-09-27 21:54:00+00:00,244.0,7.92,247.0,9.36,12.97,47.59359,-54.27349
2023-09-27 22:04:00+00:00,242.0,8.05,238.0,9.42,12.97,47.59359,-54.27349
2023-09-27 22:14:00+00:00,236.0,8.61,242.0,9.58,12.49,47.59359,-54.27349
2023-09-27 22:24:00+00:00,241.0,8.58,239.0,9.81,12.49,47.59359,-54.27349
2023-09-27 22:34:00+00:00,245.0,6.89,247.0,9.19,12.49,47.59359,-54.27349
2023-09-27 22:44:00+00:00,244.0,7.65,240.0,9.2,12.49,47.59359,-54.27349
2023-09-27 22:54:00+00:00,241.0,6.82,249.0,7.62,12.49,47.59359,-54.27349
2023-09-27 23:04:00+00:00,250.0,6.49,252.0,8.33,12.49,47.59359,-54.27349
2023-09-27 23:14:00+00:00,236.0,7.31,240.0,8.43,12.41,47.59359,-54.27349
2023-09-27 23:24:00+00:00,244.0,6.05,248.0,6.88,12.41,47.59359,-54.27349
2023-09-27 23:34:00+00:00,239.0,5.93,242.0,7.75,12.41,47.59359,-54.27349
2023-09-27 23:44:00+00:00,240.0,6.03,240.0,6.87,12.41,47.59359,-54.27349
2023-09-27 23:54:00+00:00,242.0,5.49,238.0,6.42,12.41,47.59359,-54.27349
